Overview Statistics Trail Chart Weather Telemetry Raw packets
 

This is the latest recevied weather packets stored in our database for station/object JH7UAX-10. If no packets are shown the sender has not sent any weather packets the latest 10 day(s).

<< 7 8 9 10 11 12 13 >>
Time Temp. Humidity Pressure Rain* Wind** Luminosity Snow
1788330554 27.22° C 89% 1023.1 hPa 0 mm - - -
1788329654 27.22° C 90% 1022.9 hPa 0 mm - - -
1788328755 27.22° C 89% 1022.9 hPa 0 mm - - -
1788327855 27.78° C 88% 1022.7 hPa 0 mm - - -
1788326954 27.78° C 87% 1023 hPa 0 mm - - -
1788326054 27.78° C 87% 1022.9 hPa 0 mm - - -
1788325154 27.22° C 88% 1022.7 hPa 0 mm - - -
1788324254 26.67° C 89% 1022.9 hPa 0 mm - - -
1788322453 27.22° C 88% 1023.3 hPa 0 mm - - -
1788321553 27.22° C 90% 1023.4 hPa 0 mm - - -
1788320655 26.67° C 91% 1023 hPa 0 mm - - -
1788319754 26.67° C 93% 1023.3 hPa 0 mm - - -
1788318854 26.11° C 94% 1023.2 hPa 0 mm - - -
1788317955 25.56° C 95% 1023.4 hPa 0 mm - - -
1788317054 25.56° C 96% 1023.4 hPa 0 mm - - -
1788316169 24.44° C 97% 1023.6 hPa 0 mm - - -
1788314355 23.89° C 98% 1023.7 hPa 6.35 mm - - -
1788313454 23.33° C 97% 1024.2 hPa 6.35 mm - - -
1788312555 23.33° C 97% 1024 hPa 6.35 mm - - -
1788311653 23.89° C 96% 1024.1 hPa 4.32 mm - - -
1788310754 23.89° C 97% 1024.1 hPa 0 mm - - -
1788308954 23.33° C 99% 1024.2 hPa 0 mm - - -
1788308053 23.33° C 99% 1024.2 hPa 0 mm - - -
1788307154 22.78° C 99% 1024.2 hPa 0 mm - - -
1788304454 22.22° C 99% 1024.1 hPa 0 mm - - -

* Rain latest hour (hover to see other rain measurements)
** Current wind speed in m/s (hover to see current wind gust speed)